Perry, FL

4:07 PM EDT on March 30, 2017 (GMT -0400)
Perry

Weather History for K40J - October, 2012

Change the Weather History Date:

Sunday, October 28, 2012

  Actual Average (KVLD) Record (KVLD)
Temperature  
Mean Temperature 55 °F -  
Max Temperature 62 °F 76 °F 87 °F (2010)
Min Temperature 48 °F 52 °F 34 °F (2008)
Degree Days  
Heating Degree Days 10    
Growing Degree Days 5 (Base 50)    
Moisture  
Dew Point 49 °F    
Average Humidity 78    
Maximum Humidity 92    
Minimum Humidity 69    
Precipitation  
Precipitation 0.00 in - - ()
Sea Level Pressure  
Sea Level Pressure 29.79 in    
Wind  
Wind Speed 9 mph (NW)    
Max Wind Speed 14 mph    
Max Gust Speed 21 mph    
Averages and records for this station are not official NWS values.
T = Trace of Precipitation, MM = Missing Value Source: NWS Daily Summary

Daily Weather History Graph

Daily Weather History Graph

Search for Another Location

Airport or City:

Trip Planner

Search our weather history database for the weather conditions in past years. The results will help you decide how hot, cold, wet, or windy it might be!

Date:

Astronomy

Oct. 28, 2012 Rise Set
Actual Time 7:45 AM EDT 6:50 PM EDT
Civil Twilight 7:21 AM EDT 7:14 PM EDT
Nautical Twilight 6:52 AM EDT 7:42 PM EDT
Astronomical Twilight 6:24 AM EDT 8:10 PM EDT
Moon 6:06 PM EDT (10/28) 6:39 AM EDT (10/28)
Length of Visible Light 11h 53m
Length of Day
11h 04m
Waxing Gibbous, 99% of the Moon is Illuminated
Oct 28
Waxing Gibbous
Oct 29
Full
Nov 6
Last Quarter
Nov 13
New
Nov 20
First Quarter

Hourly Weather History & Observations

Time (EDT) Temp. Dew Point Humidity Pressure Visibility Wind Dir Wind Speed Gust Speed Precip Events Conditions
12:53 AM 62.1 °F 55.0 °F 78% 29.75 in - NW 9.2 mph - N/A   Unknown
1:53 AM 60.1 °F 52.0 °F 75% 29.76 in - NW 12.7 mph 18.4 mph N/A   Unknown
2:53 AM 57.9 °F 51.1 °F 78% 29.76 in - NW 9.2 mph - N/A   Unknown
3:53 AM 55.9 °F 50.0 °F 80% 29.75 in - NW 8.1 mph - N/A   Unknown
4:53 AM 55.0 °F 50.0 °F 83% 29.75 in - NNW 6.9 mph - N/A   Unknown
5:53 AM 53.1 °F 48.9 °F 86% 29.76 in - WNW 6.9 mph - N/A   Unknown
6:53 AM 51.1 °F 48.0 °F 89% 29.76 in - WNW 5.8 mph - N/A   Unknown
7:53 AM 51.1 °F 48.9 °F 92% 29.78 in - WNW 5.8 mph - N/A   Unknown
8:53 AM 53.1 °F 50.0 °F 89% 29.81 in - WNW 6.9 mph - N/A   Unknown
9:53 AM 55.9 °F 50.0 °F 80% 29.82 in - WNW 9.2 mph - N/A   Unknown
10:53 AM 57.0 °F 50.0 °F 77% 29.82 in - WNW 8.1 mph - N/A   Unknown
11:53 AM 57.9 °F 50.0 °F 75% 29.81 in - WNW 9.2 mph - N/A   Unknown
12:53 PM 59.0 °F 50.0 °F 72% 29.79 in - WNW 9.2 mph - N/A   Unknown
1:53 PM 59.0 °F 50.0 °F 72% 29.77 in - WNW 10.4 mph - N/A   Unknown
2:53 PM 57.9 °F 50.0 °F 75% 29.76 in - NW 11.5 mph - N/A   Unknown
3:53 PM 57.9 °F 50.0 °F 75% 29.76 in - NW 9.2 mph - N/A   Unknown
4:53 PM 57.0 °F 48.9 °F 74% 29.76 in - NW 6.9 mph 18.4 mph N/A   Unknown
5:53 PM 57.0 °F 48.9 °F 74% 29.78 in - NW 10.4 mph - N/A   Unknown
6:53 PM 55.9 °F 48.0 °F 75% 29.79 in - NW 10.4 mph 18.4 mph N/A   Unknown
7:53 PM 57.0 °F 46.9 °F 69% 29.81 in - NW 13.8 mph 20.7 mph N/A   Unknown
8:53 PM 54.0 °F 46.0 °F 75% 29.83 in - NW 8.1 mph - N/A   Unknown
9:53 PM 52.0 °F 45.0 °F 77% 29.85 in - WNW 5.8 mph - N/A   Unknown
10:53 PM 48.9 °F 44.1 °F 83% 29.85 in - WNW 4.6 mph - N/A   Unknown
11:53 PM 48.9 °F 43.0 °F 80% 29.85 in - WNW 4.6 mph - N/A   Unknown